Weather History for PABR - April, 2014

Change the Weather History Date:

Friday, April 18, 2014

  Actual Average Record
Temperature  
Mean Temperature 3 °F -  
Max Temperature 8 °F 10 °F 32 °F (1951)
Min Temperature -2 °F -3 °F -27 °F (1984)
Degree Days  
Heating Degree Days 62 62  
Month to date heating degree days 1197 1211  
Since 1 July heating degree days 15021 16463  
Cooling Degree Days 0    
Month to date cooling degree days 0  
Year to date cooling degree days 0  
Moisture  
Dew Point -1 °F    
Average Humidity 0    
Maximum Humidity 0    
Minimum Humidity 0    
Precipitation  
Precipitation T in 0.01 in 0.07 in (1963)
Month to date precipitation 0.20 0.10  
Year to date precipitation 0.62 0.46  
Snow  
Snow T in 0.10 in 1.50 in (2002)
Month to date snowfall 1.1 1.9  
Since 1 July snowfall 45.5 33.0  
Snow Depth 7.00 in    
Sea Level Pressure  
Sea Level Pressure 29.91 in    
Wind  
Wind Speed 10 mph (NE)    
Max Wind Speed 14 mph    
Max Gust Speed 16 mph    
Visibility 7 miles    
Events Snow    
T = Trace of Precipitation, MM = Missing Value Source: NWS Daily Summary

Daily Weather History Graph

Daily Weather History Graph

Search for Another Location

Airport or City:

Trip Planner

Search our weather history database for the weather conditions in past years. The results will help you decide how hot, cold, wet, or windy it might be!

Date:

Astronomy

Apr. 18, 2014 Rise Set
Actual Time 5:54 AM AKDT 11:02 PM AKDT
Civil Twilight 4:09 AM AKDT 12:51 AM AKDT
Nautical Twilight Sun does not set Sun does not set
Astronomical Twilight Sun does not set Sun does not set
Moon 4:37 AM AKDT (4/18) 5:41 AM AKDT (4/18)
Length of Visible Light 20h 42m
Length of Day
17h 07m
Waning Gibbous, 86% of the Moon is Illuminated
Apr 18
Waning Gibbous
Apr 21
Last Quarter
Apr 28
New
May 6
First Quarter
May 14
Full

Hourly Weather History & Observations

Time (AKDT) Temp. Windchill Dew Point Humidity Pressure Visibility Wind Dir Wind Speed Gust Speed Precip Events Conditions
12:53 AM 3.9 °F -12.2 °F 1.0 °F 88% 29.88 in 8.0 mi NNE 11.5 mph - 0.00 in Snow Light Snow
1:53 AM 1.9 °F -12.9 °F -0.9 °F 88% 29.88 in 9.0 mi NNE 9.2 mph - 0.00 in   Mostly Cloudy
2:00 AM 1.9 °F -12.9 °F -0.9 °F 88% 29.87 in 10.0 mi NNE 9.2 mph - N/A   Scattered Clouds
2:53 AM -0.0 °F -15.3 °F -2.9 °F 88% 29.88 in 10.0 mi NNE 9.2 mph - N/A   Scattered Clouds
3:53 AM -0.0 °F -14.2 °F -4.0 °F 83% 29.88 in 10.0 mi NNE 8.1 mph - N/A   Partly Cloudy
4:26 AM -0.9 °F -15.3 °F -5.1 °F 83% 29.87 in 8.0 mi NE 8.1 mph - N/A   Overcast
4:53 AM -0.9 °F -16.4 °F -5.1 °F 83% 29.88 in 9.0 mi NNE 9.2 mph - N/A   Scattered Clouds
5:53 AM -2.0 °F -15.4 °F -5.1 °F 87% 29.88 in 7.0 mi NNE 6.9 mph - N/A   Scattered Clouds
6:53 AM -0.9 °F -15.3 °F -5.1 °F 83% 29.88 in 7.0 mi NNE 8.1 mph - N/A   Mostly Cloudy
7:53 AM -0.9 °F -15.3 °F -5.1 °F 83% 29.89 in 3.0 mi NNE 8.1 mph - N/A   Mostly Cloudy
8:24 AM -0.0 °F -15.3 °F -4.0 °F 83% 29.89 in 0.8 mi NNE 9.2 mph - N/A   Overcast
8:53 AM -0.0 °F -16.3 °F -2.9 °F 88% 29.90 in 0.8 mi NNE 10.4 mph - N/A   Overcast
9:34 AM 1.0 °F -14.0 °F -2.9 °F 83% 29.89 in 1.0 mi NNE 9.2 mph - N/A   Mostly Cloudy
9:53 AM 1.9 °F -12.9 °F -2.0 °F 83% 29.90 in 3.0 mi NNE 9.2 mph - N/A   Scattered Clouds
10:53 AM 3.0 °F -10.5 °F -0.0 °F 87% 29.91 in 3.0 mi NE 8.1 mph - N/A   Scattered Clouds
11:53 AM 3.9 °F -11.3 °F 1.0 °F 88% 29.91 in 3.0 mi NE 10.4 mph - N/A   Partly Cloudy
12:53 PM 3.2 °F -11.3 °F 1.4 °F 92% 29.91 in 7.0 mi NE 9.2 mph - N/A   Partly Cloudy
1:53 PM 5.0 °F -10.0 °F 1.9 °F 87% 29.92 in 7.0 mi NE 10.4 mph - N/A   Clear
2:53 PM 6.1 °F -8.7 °F 1.9 °F 83% 29.93 in 7.0 mi NNE 10.4 mph - N/A   Clear
3:53 PM 7.0 °F -8.3 °F 3.0 °F 84% 29.93 in 8.0 mi NNE 11.5 mph - N/A   Clear
4:53 PM 7.0 °F -8.3 °F 3.0 °F 84% 29.93 in 10.0 mi NE 11.5 mph - N/A   Clear
5:53 PM 7.0 °F -8.3 °F 3.0 °F 84% 29.93 in 10.0 mi NE 11.5 mph - N/A   Clear
6:53 PM 6.8 °F -9.3 °F 1.4 °F 79% 29.93 in 10.0 mi NE 12.7 mph - N/A   Clear
7:53 PM 6.1 °F -9.5 °F 1.9 °F 83% 29.94 in 8.0 mi NE 11.5 mph - N/A   Clear
8:53 PM 3.9 °F -12.2 °F -0.0 °F 84% 29.95 in 10.0 mi NE 11.5 mph - N/A   Clear
9:53 PM 3.0 °F -12.5 °F -2.0 °F 80% 29.96 in 10.0 mi NE 10.4 mph - N/A   Clear
10:53 PM 1.0 °F -15.8 °F -2.9 °F 83% 29.97 in 10.0 mi NE 11.5 mph - N/A   Clear
11:53 PM -0.0 °F -17.1 °F -4.0 °F 83% 29.97 in 10.0 mi NE 11.5 mph - N/A   Clear